[[{"header":{"parameterUnit":"m.s-1","parameterCategory":1,"la1":30.2991,"la2":30.254,"lo1":-89.0895,"lo2":-89.0444,"dy":0.0017,"dx":0.0017,"nx":28,"ny":28,"refTime":"2025-12-12T09:00:00:Z","depth":0,"parameterNumber":2,"parameterNumberName":"U-component_of_WINDS"},"data":[0,0,0,0,0,0,0,0,0,0,0,0,0,0,0,0,0,0,0,0,0,0,0,0,0,0,0,0,0,0,0,0,0,0,0,0,0,0,0,0,0,0,0,0,0,0,0,0,0,0,0,0,0,0,0,0,0,0,-2.2266,-2.2266,0,-2.2266,-2.2266,-2.2266,-2.224,-2.224,-2.2239,-2.2238,-2.2239,-2.2239,-2.224,0,0,0,0,0,0,0,0,0,0,0,0,0,-2.2246,-2.2246,-2.2266,-2.2266,-2.2266,-2.2266,-2.2266,-2.2266,-2.224,-2.2239,-2.2239,-2.2238,-2.2239,-2.2239,-2.224,0,0,0,0,0,0,0,0,0,0,0,0,0,-2.2251,-2.2246,-2.2266,-2.2253,-2.2252,-2.2266,-2.2266,-2.2266,-2.2241,-2.2239,-2.2238,-2.2237,-2.2238,-2.2239,-2.224,-2.2267,0,0,-2.2243,-2.2244,0,0,0,0,0,0,0,0,-2.2251,-2.2252,-2.2255,-2.2254,-2.2253,-2.2252,-2.2259,-2.2267,-2.2241,-2.2245,-2.2238,-2.2237,-2.2244,-2.2245,-2.2247,-2.2267,-2.2267,-2.2243,-2.2244,-2.2244,-2.2245,0,0,0,0,0,0,0,-2.225,-2.2252,-2.2266,-2.2255,-2.2254,-2.2248,-2.2248,-2.226,-2.225,-2.2245,-2.2243,-2.2243,-2.2243,-2.2246,-2.2247,-2.2267,-2.2243,-2.2244,-2.2245,-2.2245,-2.231,-2.2311,0,0,0,0,0,0,-2.2252,-2.2252,-2.2266,-2.2266,-2.2249,-2.2249,-2.2249,-2.2253,-2.225,-2.2249,-2.2244,-2.2242,-2.2245,-2.2246,-2.2247,-2.2278,-2.2244,-2.2245,-2.2246,-2.2309,-2.2311,-2.2312,0,0,0,0,0,0,-2.2251,-2.2253,-2.2266,-2.2258,-2.226,-2.2251,-2.2256,-2.2254,-2.2257,-2.225,-2.2248,-2.2248,-2.2244,-2.2245,-2.2262,-2.2277,-2.2246,-2.2247,-2.2308,-2.231,-2.2311,-2.234,0,0,0,0,0,0,-2.2251,-2.2253,-2.2263,-2.2259,-2.226,-2.2281,-2.2257,-2.2255,-2.2258,-2.2256,-2.2253,-2.2252,-2.2243,-2.2261,-2.2263,-2.2278,-2.2247,-2.2306,-2.2309,-2.2311,-2.2338,-2.2343,-2.2347,0,0,0,0,0,-2.225,-2.2271,-2.2263,-2.2265,-2.2272,-2.2282,-2.2283,-2.2273,-2.226,-2.2269,-2.2265,-2.2252,-2.2276,-2.2263,-2.2265,-2.2281,-2.2305,-2.2308,-2.2311,-2.2336,-2.2342,-2.2347,0,0,0,0,0,0,-2.2276,-2.227,-2.2261,-2.2281,-2.2283,-2.2278,-2.2289,-2.2279,-2.2284,-2.2281,-2.2268,-2.2268,-2.2287,-2.2286,-2.2272,-2.2307,-2.2288,-2.2292,-2.2307,-2.2313,-2.2317,-2.2316,-2.2248,0,0,0,0,0,-2.2284,-2.2293,-2.2287,-2.2306,-2.2307,-2.2298,-2.2302,-2.2295,-2.2295,-2.2296,-2.2293,-2.2294,-2.2302,-2.2308,-2.2314,-2.2338,-2.2338,-2.2351,-2.2355,-2.2359,-2.2361,-2.2375,-2.238,-2.232,-2.232,-2.232,0,0,-2.2301,-2.2299,-2.2305,-2.2311,-2.2311,-2.2321,-2.2299,-2.231,-2.2317,-2.2297,-2.2313,-2.2311,-2.2313,-2.2333,-2.2342,-2.2333,-2.2378,-2.2362,-2.2365,-2.2365,-2.2378,-2.2383,-2.2388,-2.2322,-2.2322,-2.2321,0,0,-2.2336,-2.2335,-2.235,-2.2351,-2.2352,-2.2347,-2.235,-2.2348,-2.2346,-2.2362,-2.2347,-2.2357,-2.237,-2.2372,-2.2374,-2.2413,-2.2401,-2.2416,-2.2439,-2.2452,-2.2456,-2.2461,-2.2474,-2.2479,-2.2418,-2.2418,-2.2419,0,-2.2357,-2.237,-2.236,-2.2372,-2.2375,-2.2359,-2.2375,-2.2376,-2.2379,-2.2382,-2.2371,-2.2389,-2.2389,-2.241,-2.2419,-2.2422,-2.2427,-2.2415,-2.2457,-2.2461,-2.2464,-2.2477,-2.2482,-2.242,-2.242,-2.242,-2.242,0,-2.2396,-2.2406,-2.2418,-2.2421,-2.2426,-2.244,-2.2433,-2.2439,-2.2432,-2.2428,-2.2445,-2.2444,-2.2451,-2.2456,-2.2448,-2.2477,-2.2471,-2.2459,-2.2439,-2.2472,-2.2484,-2.2488,-2.2423,-2.2422,-2.2422,-2.2421,0,0,-2.2445,-2.2444,-2.2448,-2.245,-2.2451,-2.2458,-2.2473,-2.2479,-2.2485,-2.2489,-2.25,-2.2513,-2.2503,-2.2506,-2.2499,-2.2511,-2.2541,-2.2497,-2.2497,-2.2505,-2.2573,-2.2581,-2.2586,-2.2534,-2.2535,-2.2536,-2.2572,0,-2.2478,-2.2501,-2.2493,-2.2517,-2.2527,-2.2512,-2.2525,-2.2527,-2.2524,-2.2533,-2.253,-2.2539,-2.2525,-2.2527,-2.2538,-2.2535,-2.2554,-2.2533,-2.2545,-2.2545,-2.2544,-2.2593,-2.2601,-2.2635,-2.2577,-2.2578,-2.2578,0,-2.252,-2.2525,-2.255,-2.255,-2.2554,-2.2565,-2.2571,-2.2579,-2.2582,-2.258,-2.2584,-2.2575,-2.259,-2.2572,-2.2592,-2.2578,-2.2583,-2.2582,-2.2584,-2.2583,-2.2563,-2.2593,-2.2646,-2.2651,-2.2585,-2.2585,-2.2584,0,-2.2553,-2.2566,-2.2583,-2.2585,-2.2586,-2.2594,-2.2595,-2.2597,-2.2602,-2.2608,-2.2611,-2.2619,-2.2623,-2.263,-2.2623,-2.2611,-2.2645,-2.2626,-2.2643,-2.2643,-2.265,-2.2649,-2.2703,-2.2655,-2.2655,-2.2655,-2.2654,0,-2.259,-2.2606,-2.2598,-2.2608,-2.2626,-2.2617,-2.2635,-2.2634,-2.2637,-2.2647,-2.2636,-2.2646,-2.2637,-2.2647,-2.2643,-2.266,-2.2663,-2.2661,-2.2659,-2.2661,-2.2662,-2.2663,-2.2661,-2.2656,-2.2656,-2.2655,-2.2655,0,-2.2629,-2.2624,-2.2642,-2.2642,-2.2642,-2.2655,-2.2655,-2.2665,-2.2662,-2.2676,-2.2678,-2.2675,-2.2685,-2.2681,-2.2692,-2.2689,-2.2712,-2.2708,-2.2711,-2.2709,-2.2726,-2.2724,-2.2783,-2.279,-2.2738,-2.2738,-2.2739,0,-2.2653,-2.2665,-2.2666,-2.2672,-2.2674,-2.2684,-2.2689,-2.2682,-2.2688,-2.2694,-2.2703,-2.2713,-2.2721,-2.2739,-2.2738,-2.2747,-2.2742,-2.2762,-2.2743,-2.2745,-2.2742,-2.2741,-2.2742,-2.2765,-2.2766,-2.2766,-2.2767,0,-2.2695,-2.2693,-2.2701,-2.2709,-2.2716,-2.2721,-2.2726,-2.2732,-2.2726,-2.2733,-2.2744,-2.2751,-2.2763,-2.2773,-2.2782,-2.2783,-2.2774,-2.2773,-2.2777,-2.2779,-2.278,-2.2779,-2.272,-2.2771,-2.2771,-2.2771,-2.277,-2.277,-2.2727,-2.2737,-2.274,-2.275,-2.2753,-2.2758,-2.2768,-2.2767,-2.2776,-2.2785,-2.2781,-2.2794,-2.2798,-2.2809,-2.2812,-2.2822,-2.2815,-2.2821,-2.2822,-2.2824,-2.2826,-2.278,-2.2824,-2.2824,-2.2824,-2.2824,-2.2824,0,-2.2768,-2.277,-2.2779,-2.2787,-2.2795,-2.2786,-2.2792,-2.2799,-2.2811,-2.2815,-2.2823,-2.2837,-2.2848,-2.2848,-2.2858,-2.2866,-2.2863,-2.2869,-2.2868,-2.2869,-2.2832,-2.2827,-2.2872,-2.2872,-2.2872,-2.2872,-2.2872,-2.2872,-2.2791,-2.2807,-2.2806,-2.2825,-2.2826,-2.2839,-2.2843,-2.2848,-2.2852,-2.2867,-2.2876,-2.2876,-2.288,-2.289,-2.29,-2.29,-2.2904,-2.2912,-2.291,-2.2876,-2.2871,-2.2866,-2.2861,-2.2913,-2.2913,-2.2945,-2.2945,-2.2946]},{"header":{"parameterUnit":"m.s-1","parameterCategory":1,"la1":30.2991,"la2":30.254,"lo1":-89.0895,"lo2":-89.0444,"dy":0.0017,"dx":0.0017,"nx":28,"ny":28,"refTime":"2025-12-12T09:00:00:Z","depth":0,"parameterNumber":3,"parameterNumberName":"V-component_of_WINDS"},"data":[0,0,0,0,0,0,0,0,0,0,0,0,0,0,0,0,0,0,0,0,0,0,0,0,0,0,0,0,0,0,0,0,0,0,0,0,0,0,0,0,0,0,0,0,0,0,0,0,0,0,0,0,0,0,0,0,0,0,2.0305,2.0306,0,2.0336,2.0337,2.0337,2.0415,2.0417,2.0419,2.042,2.0449,2.0448,2.0447,0,0,0,0,0,0,0,0,0,0,0,0,0,2.0313,2.0313,2.0305,2.0306,2.0306,2.0336,2.0337,2.0337,2.0415,2.0417,2.0419,2.0421,2.0449,2.0448,2.0447,0,0,0,0,0,0,0,0,0,0,0,0,0,2.0323,2.0312,2.0305,2.0349,2.0353,2.0336,2.0337,2.0337,2.0415,2.0417,2.042,2.0422,2.0449,2.0448,2.0447,2.0389,0,0,2.0443,2.0443,0,0,0,0,0,0,0,0,2.0323,2.0323,2.0342,2.0346,2.035,2.0375,2.035,2.0355,2.0414,2.0391,2.042,2.0423,2.0422,2.0423,2.0423,2.0391,2.0392,2.0443,2.0442,2.0442,2.0442,0,0,0,0,0,0,0,2.0322,2.0322,2.0318,2.0342,2.0347,2.0367,2.0371,2.0351,2.0392,2.0393,2.0399,2.0402,2.0425,2.0424,2.0425,2.0392,2.0443,2.0442,2.0441,2.0441,2.0319,2.0317,0,0,0,0,0,0,2.0315,2.0321,2.0317,2.0319,2.0343,2.0364,2.0369,2.0364,2.0392,2.0399,2.04,2.0405,2.0425,2.0426,2.0426,2.0364,2.0442,2.0441,2.044,2.0322,2.0319,2.0316,0,0,0,0,0,0,2.0315,2.0314,2.0315,2.0321,2.0323,2.0362,2.0356,2.0364,2.0363,2.0397,2.0405,2.0392,2.0427,2.0427,2.0399,2.0366,2.044,2.0439,2.0325,2.0321,2.0317,2.0237,0,0,0,0,0,0,2.0315,2.0313,2.0292,2.032,2.0322,2.0288,2.0353,2.0362,2.0362,2.0369,2.0392,2.0398,2.0429,2.0401,2.0398,2.0366,2.0438,2.0328,2.0323,2.0318,2.0243,2.0231,2.0221,0,0,0,0,0,2.0315,2.0266,2.029,2.0289,2.0296,2.0286,2.0287,2.0325,2.0358,2.0338,2.036,2.0397,2.037,2.0397,2.0395,2.0361,2.033,2.0324,2.0319,2.0248,2.0233,2.0221,0,0,0,0,0,0,2.0231,2.0271,2.0298,2.0257,2.0268,2.0299,2.0274,2.0307,2.0308,2.0315,2.036,2.0365,2.0331,2.0343,2.0373,2.031,2.0356,2.035,2.0303,2.029,2.0279,2.0277,2.0437,0,0,0,0,0,2.0208,2.0197,2.0232,2.0192,2.0197,2.0234,2.0231,2.0259,2.0272,2.0276,2.0296,2.0306,2.0301,2.0295,2.0291,2.0245,2.0252,2.0221,2.021,2.0201,2.0195,2.0175,2.0162,2.0297,2.0297,2.0297,0,0,2.0159,2.018,2.017,2.0176,2.0188,2.0176,2.0237,2.0221,2.0213,2.0273,2.025,2.0264,2.0279,2.0242,2.0227,2.0251,2.016,2.0193,2.0186,2.0185,2.0168,2.0155,2.0144,2.0293,2.0294,2.0295,0,0,2.0066,2.0079,2.005,2.0062,2.008,2.0106,2.0098,2.0125,2.0139,2.0116,2.0162,2.0153,2.014,2.015,2.0153,2.0067,2.0103,2.0065,2.0007,1.9987,1.9977,1.9968,1.994,1.9929,2.0059,2.0058,2.0058,0,2.0004,1.9988,2.0031,2.0013,2.0015,2.0072,2.0044,2.0052,2.0067,2.0068,2.0095,2.0084,2.0097,2.0065,2.0045,2.0044,2.0039,2.0063,1.9975,1.9966,1.9958,1.9933,1.9922,2.0054,2.0054,2.0055,2.0055,0,1.9912,1.9901,1.9875,1.9891,1.989,1.9867,1.9906,1.9901,1.993,1.9953,1.993,1.9949,1.9952,1.9946,1.9972,1.9919,1.9934,1.9967,2.0015,1.994,1.9917,1.9907,2.0047,2.0049,2.005,2.0051,0,0,1.9766,1.9808,1.9798,1.9808,1.9833,1.9825,1.9805,1.981,1.9806,1.9814,1.98,1.979,1.9823,1.9826,1.9855,1.9837,1.9772,1.9873,1.9874,1.9856,1.9718,1.9694,1.9682,1.9796,1.9794,1.9792,1.9718,0,1.968,1.965,1.9689,1.9651,1.9642,1.9698,1.9681,1.9695,1.9716,1.9712,1.9736,1.973,1.9771,1.9774,1.9759,1.9783,1.9745,1.9789,1.9784,1.9783,1.9781,1.9669,1.9644,1.9572,1.9709,1.9707,1.9706,0,1.9576,1.9584,1.9545,1.9577,1.9575,1.9559,1.9568,1.9563,1.9581,1.9598,1.9604,1.964,1.9623,1.9669,1.9649,1.9678,1.9678,1.969,1.9688,1.969,1.9741,1.9671,1.955,1.954,1.9691,1.9692,1.9693,0,1.9477,1.9477,1.9455,1.9461,1.9496,1.9485,1.9499,1.9519,1.9521,1.9528,1.953,1.9535,1.9538,1.9541,1.9578,1.9607,1.9554,1.9602,1.9569,1.9568,1.9556,1.9557,1.9436,1.9552,1.9552,1.9552,1.9553,0,1.9379,1.9354,1.9412,1.9398,1.9372,1.9418,1.9391,1.941,1.9429,1.9421,1.9467,1.9459,1.9506,1.9503,1.9531,1.9512,1.9512,1.9526,1.9535,1.9524,1.9522,1.9526,1.9532,1.955,1.955,1.9551,1.9551,0,1.9264,1.9302,1.9282,1.9318,1.9327,1.9307,1.9338,1.9328,1.9353,1.9343,1.9343,1.9383,1.9382,1.9418,1.9423,1.9443,1.9412,1.9428,1.9407,1.9413,1.9379,1.9382,1.9257,1.9245,1.9367,1.9365,1.9364,0,1.92,1.9183,1.9219,1.9218,1.923,1.9227,1.923,1.9275,1.9276,1.9297,1.9284,1.9288,1.9293,1.9289,1.9318,1.9323,1.9341,1.9297,1.9342,1.9333,1.9344,1.9346,1.9346,1.9288,1.9286,1.9285,1.9284,0,1.9084,1.9104,1.9107,1.9118,1.912,1.913,1.9142,1.9138,1.9188,1.9187,1.9188,1.9192,1.9199,1.9203,1.9214,1.9229,1.9265,1.927,1.9263,1.9253,1.9242,1.9251,1.9383,1.9273,1.9274,1.9275,1.9275,1.9276,1.8995,1.8983,1.9008,1.9011,1.9026,1.9037,1.9031,1.9057,1.9059,1.907,1.9096,1.9093,1.9114,1.9134,1.9146,1.9145,1.9167,1.9156,1.9154,1.9151,1.9146,1.9241,1.9146,1.9147,1.9147,1.9147,1.9148,0,1.8884,1.8903,1.8905,1.8923,1.8926,1.8961,1.8978,1.8978,1.8975,1.8993,1.8998,1.9,1.9005,1.9036,1.9044,1.9037,1.9055,1.9038,1.904,1.9044,1.9124,1.9131,1.9025,1.9025,1.9025,1.9025,1.9025,1.9025,1.8826,1.881,1.8834,1.8826,1.8846,1.8845,1.8852,1.8864,1.8879,1.888,1.8885,1.8906,1.8929,1.894,1.8946,1.8955,1.8957,1.8936,1.8951,1.9026,1.9038,1.9049,1.9056,1.8935,1.8935,1.8871,1.887,1.887]}]]